Year,Month,Day,Hour,Minute,Value (Times are PST for temperature in C)
2016,04,11,00,00,9.20
2016,04,11,00,01,9.20
2016,04,11,00,02,9.20
2016,04,11,00,03,9.20
2016,04,11,00,04,9.20
2016,04,11,00,05,9.30
2016,04,11,00,06,9.20
2016,04,11,00,07,9.20
2016,04,11,00,08,9.30
2016,04,11,00,09,9.30
2016,04,11,00,10,9.30
2016,04,11,00,11,9.30
2016,04,11,00,12,9.30
2016,04,11,00,13,9.30
2016,04,11,00,14,9.30
2016,04,11,00,15,9.30
2016,04,11,00,16,9.30
2016,04,11,00,17,9.30
2016,04,11,00,18,9.30
2016,04,11,00,19,9.30
2016,04,11,00,20,9.30
2016,04,11,00,21,9.30
2016,04,11,00,22,9.30
2016,04,11,00,23,9.30
2016,04,11,00,24,9.30
2016,04,11,00,25,9.30
2016,04,11,00,26,9.30
2016,04,11,00,27,9.30
2016,04,11,00,28,9.30
2016,04,11,00,29,9.30
2016,04,11,00,30,9.30
2016,04,11,00,31,9.30
2016,04,11,00,32,9.30
2016,04,11,00,33,9.30
2016,04,11,00,34,9.30
2016,04,11,00,35,9.30
2016,04,11,00,36,9.30
2016,04,11,00,37,9.30
2016,04,11,00,38,9.30
2016,04,11,00,39,9.30
2016,04,11,00,40,9.30
2016,04,11,00,41,9.30
2016,04,11,00,42,9.40
2016,04,11,00,43,9.40
2016,04,11,00,44,9.40
2016,04,11,00,45,9.40
2016,04,11,00,46,9.40
2016,04,11,00,47,9.40
2016,04,11,00,48,9.40
2016,04,11,00,49,9.40
2016,04,11,00,50,9.40
2016,04,11,00,51,9.40
2016,04,11,00,52,9.40
2016,04,11,00,53,9.40
2016,04,11,00,54,9.40
2016,04,11,00,55,9.40
2016,04,11,00,56,9.40
2016,04,11,00,57,9.40
2016,04,11,00,58,9.40
2016,04,11,00,59,9.50
2016,04,11,01,00,9.50
2016,04,11,01,01,9.50
2016,04,11,01,02,9.50
2016,04,11,01,03,9.50
2016,04,11,01,04,9.50
2016,04,11,01,05,9.50
2016,04,11,01,06,9.50
2016,04,11,01,07,9.50
2016,04,11,01,08,9.50
2016,04,11,01,09,9.50
2016,04,11,01,10,9.50
2016,04,11,01,11,9.50
2016,04,11,01,12,9.50
2016,04,11,01,13,9.50
2016,04,11,01,14,9.50
2016,04,11,01,15,9.50
2016,04,11,01,16,9.50
2016,04,11,01,17,9.50
2016,04,11,01,18,9.50
2016,04,11,01,19,9.50
2016,04,11,01,20,9.50
2016,04,11,01,21,9.50
2016,04,11,01,22,9.50
2016,04,11,01,23,9.50
2016,04,11,01,24,9.50
2016,04,11,01,25,9.50
2016,04,11,01,26,9.50
2016,04,11,01,27,9.50
2016,04,11,01,28,9.60
2016,04,11,01,29,9.50
2016,04,11,01,30,9.50
2016,04,11,01,31,9.50
2016,04,11,01,32,9.50
2016,04,11,01,33,9.50
2016,04,11,01,34,9.50
2016,04,11,01,35,9.50
2016,04,11,01,36,9.50
2016,04,11,01,37,9.50
2016,04,11,01,38,9.50
2016,04,11,01,39,9.50
2016,04,11,01,40,9.50
2016,04,11,01,41,9.60
2016,04,11,01,42,9.60
2016,04,11,01,43,9.60
2016,04,11,01,44,9.50
2016,04,11,01,45,9.50
2016,04,11,01,46,9.50
2016,04,11,01,47,9.50
2016,04,11,01,48,9.50
2016,04,11,01,49,9.50
2016,04,11,01,50,9.50
2016,04,11,01,51,9.50
2016,04,11,01,52,9.50
2016,04,11,01,53,9.50
2016,04,11,01,54,9.50
2016,04,11,01,55,9.50
2016,04,11,01,56,9.50
2016,04,11,01,57,9.50
2016,04,11,01,58,9.50
2016,04,11,01,59,9.50
2016,04,11,02,00,9.50
2016,04,11,02,01,9.50
2016,04,11,02,02,9.50
2016,04,11,02,03,9.50
2016,04,11,02,04,9.50
2016,04,11,02,05,9.50
2016,04,11,02,06,9.50
2016,04,11,02,07,9.50
2016,04,11,02,08,9.50
2016,04,11,02,09,9.50
2016,04,11,02,10,9.50
2016,04,11,02,11,9.50
2016,04,11,02,12,9.50
2016,04,11,02,13,9.50
2016,04,11,02,14,9.60
2016,04,11,02,15,9.60
2016,04,11,02,16,9.60
2016,04,11,02,17,9.60
2016,04,11,02,18,9.60
2016,04,11,02,19,9.60
2016,04,11,02,20,9.60
2016,04,11,02,21,9.60
2016,04,11,02,22,9.60
2016,04,11,02,23,9.60
2016,04,11,02,24,9.60
2016,04,11,02,25,9.60
2016,04,11,02,26,9.60
2016,04,11,02,27,9.60
2016,04,11,02,28,9.70
2016,04,11,02,29,9.70
2016,04,11,02,30,9.70
2016,04,11,02,31,9.70
2016,04,11,02,32,9.70
2016,04,11,02,33,9.70
2016,04,11,02,34,9.70
2016,04,11,02,35,9.70
2016,04,11,02,36,9.70
2016,04,11,02,37,9.70
2016,04,11,02,38,9.70
2016,04,11,02,39,9.80
2016,04,11,02,40,9.80
2016,04,11,02,41,9.80
2016,04,11,02,42,9.80
2016,04,11,02,43,9.80
2016,04,11,02,44,9.80
2016,04,11,02,45,9.80
2016,04,11,02,46,9.80
2016,04,11,02,47,9.80
2016,04,11,02,48,9.80
2016,04,11,02,49,9.80
2016,04,11,02,50,9.80
2016,04,11,02,51,9.80
2016,04,11,02,52,9.80
2016,04,11,02,53,9.80
2016,04,11,02,54,9.90
2016,04,11,02,55,9.90
2016,04,11,02,56,9.90
2016,04,11,02,57,9.90
2016,04,11,02,58,9.90
2016,04,11,02,59,9.90
2016,04,11,03,00,9.90
2016,04,11,03,01,9.90
2016,04,11,03,02,9.90
2016,04,11,03,03,9.90
2016,04,11,03,04,9.90
2016,04,11,03,05,9.90
2016,04,11,03,06,9.90
2016,04,11,03,07,9.90
2016,04,11,03,08,9.90
2016,04,11,03,09,9.90
2016,04,11,03,10,9.90
2016,04,11,03,11,9.90
2016,04,11,03,12,9.90
2016,04,11,03,13,9.90
2016,04,11,03,14,9.90
2016,04,11,03,15,9.90
2016,04,11,03,16,9.90
2016,04,11,03,17,9.90
2016,04,11,03,18,9.90
2016,04,11,03,19,9.90
2016,04,11,03,20,9.90
2016,04,11,03,21,9.90
2016,04,11,03,22,9.90
2016,04,11,03,23,9.90
2016,04,11,03,24,9.90
2016,04,11,03,25,9.90
2016,04,11,03,26,9.90
2016,04,11,03,27,9.90
2016,04,11,03,28,9.90
2016,04,11,03,29,9.90
2016,04,11,03,30,9.90
2016,04,11,03,31,9.90
2016,04,11,03,32,9.90
2016,04,11,03,33,9.90
2016,04,11,03,34,9.90
2016,04,11,03,35,9.90
2016,04,11,03,36,9.90
2016,04,11,03,37,9.90
2016,04,11,03,38,9.90
2016,04,11,03,39,9.90
2016,04,11,03,40,9.90
2016,04,11,03,41,9.90
2016,04,11,03,42,9.90
2016,04,11,03,43,9.90
2016,04,11,03,44,9.90
2016,04,11,03,45,9.90
2016,04,11,03,46,9.90
2016,04,11,03,47,9.90
2016,04,11,03,48,9.90
2016,04,11,03,49,9.90
2016,04,11,03,50,9.90
2016,04,11,03,51,9.90
2016,04,11,03,52,9.90
2016,04,11,03,53,9.90
2016,04,11,03,54,9.90
2016,04,11,03,55,9.90
2016,04,11,03,56,9.90
2016,04,11,03,57,9.90
2016,04,11,03,58,9.90
2016,04,11,03,59,9.90
2016,04,11,04,00,9.90
2016,04,11,04,01,9.90
2016,04,11,04,02,9.90
2016,04,11,04,03,9.90
2016,04,11,04,04,9.90
2016,04,11,04,05,9.90
2016,04,11,04,06,9.90
2016,04,11,04,07,9.90
2016,04,11,04,08,9.90
2016,04,11,04,09,9.90
2016,04,11,04,10,9.90
2016,04,11,04,11,9.90
2016,04,11,04,12,9.90
2016,04,11,04,13,9.90
2016,04,11,04,14,9.90
2016,04,11,04,15,9.90
2016,04,11,04,16,9.90
2016,04,11,04,17,9.90
2016,04,11,04,18,9.90
2016,04,11,04,19,9.90
2016,04,11,04,20,9.80
2016,04,11,04,21,9.80
2016,04,11,04,22,9.80
2016,04,11,04,23,9.80
2016,04,11,04,24,9.80
2016,04,11,04,25,9.80
2016,04,11,04,26,9.80
2016,04,11,04,27,9.80
2016,04,11,04,28,9.80
2016,04,11,04,29,9.80
2016,04,11,04,30,9.80
2016,04,11,04,31,9.80
2016,04,11,04,32,9.80
2016,04,11,04,33,9.80
2016,04,11,04,34,9.80
2016,04,11,04,35,9.80
2016,04,11,04,36,9.80
2016,04,11,04,37,9.80
2016,04,11,04,38,9.80
2016,04,11,04,39,9.80
2016,04,11,04,40,9.80
2016,04,11,04,41,9.80
2016,04,11,04,42,9.80
2016,04,11,04,43,9.80
2016,04,11,04,44,9.80
2016,04,11,04,45,9.80
2016,04,11,04,46,9.80
2016,04,11,04,47,9.80
2016,04,11,04,48,9.80
2016,04,11,04,49,9.80
2016,04,11,04,50,9.80
2016,04,11,04,51,9.80
2016,04,11,04,52,9.80
2016,04,11,04,53,9.80
2016,04,11,04,54,9.80
2016,04,11,04,55,9.80
2016,04,11,04,56,9.80
2016,04,11,04,57,9.80
2016,04,11,04,58,9.70
2016,04,11,04,59,9.70
2016,04,11,05,00,9.70
2016,04,11,05,01,9.70
2016,04,11,05,02,9.70
2016,04,11,05,03,9.70
2016,04,11,05,04,9.70
2016,04,11,05,05,9.70
2016,04,11,05,06,9.70
2016,04,11,05,07,9.70
2016,04,11,05,08,9.70
2016,04,11,05,09,9.70
2016,04,11,05,10,9.70
2016,04,11,05,11,9.70
2016,04,11,05,12,9.70
2016,04,11,05,13,9.60
2016,04,11,05,14,9.70
2016,04,11,05,15,9.60
2016,04,11,05,16,9.60
2016,04,11,05,17,9.60
2016,04,11,05,18,9.60
2016,04,11,05,19,9.60
2016,04,11,05,20,9.60
2016,04,11,05,21,9.60
2016,04,11,05,22,9.60
2016,04,11,05,23,9.60
2016,04,11,05,24,9.60
2016,04,11,05,25,9.60
2016,04,11,05,26,9.60
2016,04,11,05,27,9.60
2016,04,11,05,28,9.60
2016,04,11,05,29,9.60
2016,04,11,05,30,9.60
2016,04,11,05,31,9.60
2016,04,11,05,32,9.60
2016,04,11,05,33,9.60
2016,04,11,05,34,9.60
2016,04,11,05,35,9.60
2016,04,11,05,36,9.60
2016,04,11,05,37,9.60
2016,04,11,05,38,9.60
2016,04,11,05,39,9.60
2016,04,11,05,40,9.60
2016,04,11,05,41,9.50
2016,04,11,05,42,9.60
2016,04,11,05,43,9.60
2016,04,11,05,44,9.60
2016,04,11,05,45,9.50
2016,04,11,05,46,9.60
2016,04,11,05,47,9.60
2016,04,11,05,48,9.60
2016,04,11,05,49,9.50
2016,04,11,05,50,9.50
2016,04,11,05,51,9.50
2016,04,11,05,52,9.50
2016,04,11,05,53,9.50
2016,04,11,05,54,9.50
2016,04,11,05,55,9.50
2016,04,11,05,56,9.40
2016,04,11,05,57,9.50
2016,04,11,05,58,9.40
2016,04,11,05,59,9.40
2016,04,11,06,00,9.40
2016,04,11,06,01,9.40
2016,04,11,06,02,9.40
2016,04,11,06,03,9.40
2016,04,11,06,04,9.40
2016,04,11,06,05,9.40
2016,04,11,06,06,9.40
2016,04,11,06,07,9.40
2016,04,11,06,08,9.40
2016,04,11,06,09,9.40
2016,04,11,06,10,9.40
2016,04,11,06,11,9.40
2016,04,11,06,12,9.40
2016,04,11,06,13,9.40
2016,04,11,06,14,9.40
2016,04,11,06,15,9.40
2016,04,11,06,16,9.40
2016,04,11,06,17,9.40
2016,04,11,06,18,9.40
2016,04,11,06,19,9.40
2016,04,11,06,20,9.40
2016,04,11,06,21,9.40
2016,04,11,06,22,9.40
2016,04,11,06,23,9.40
2016,04,11,06,24,9.40
2016,04,11,06,25,9.40
2016,04,11,06,26,9.40
2016,04,11,06,27,9.40
2016,04,11,06,28,9.40
2016,04,11,06,29,9.40
2016,04,11,06,30,9.40
2016,04,11,06,31,9.40
2016,04,11,06,32,9.40
2016,04,11,06,33,9.40
2016,04,11,06,34,9.40
2016,04,11,06,35,9.40
2016,04,11,06,36,9.40
2016,04,11,06,37,9.40
2016,04,11,06,38,9.40
2016,04,11,06,39,9.40
2016,04,11,06,40,9.40
2016,04,11,06,41,9.40
2016,04,11,06,42,9.40
2016,04,11,06,43,9.40
2016,04,11,06,44,9.40
2016,04,11,06,45,9.40
2016,04,11,06,46,9.40
2016,04,11,06,47,9.40
2016,04,11,06,48,9.40
2016,04,11,06,49,9.40
2016,04,11,06,50,9.40
2016,04,11,06,51,9.40
2016,04,11,06,52,9.40
2016,04,11,06,53,9.40
2016,04,11,06,54,9.40
2016,04,11,06,55,9.40
2016,04,11,06,56,9.40
2016,04,11,06,57,9.40
2016,04,11,06,58,9.40
2016,04,11,06,59,9.40
2016,04,11,07,00,9.40
2016,04,11,07,01,9.40
2016,04,11,07,02,9.40
2016,04,11,07,03,9.40
2016,04,11,07,04,9.40
2016,04,11,07,05,9.40
2016,04,11,07,06,9.40
2016,04,11,07,07,9.40
2016,04,11,07,08,9.40
2016,04,11,07,09,9.40
2016,04,11,07,10,9.40
2016,04,11,07,11,9.40
2016,04,11,07,12,9.40
2016,04,11,07,13,9.50
2016,04,11,07,14,9.50
2016,04,11,07,15,9.50
2016,04,11,07,16,9.50
2016,04,11,07,17,9.50
2016,04,11,07,18,9.50
2016,04,11,07,19,9.60
2016,04,11,07,20,9.50
2016,04,11,07,21,9.60
2016,04,11,07,22,9.60
2016,04,11,07,23,9.60
2016,04,11,07,24,9.60
2016,04,11,07,25,9.60
2016,04,11,07,26,9.60
2016,04,11,07,27,9.60
2016,04,11,07,28,9.60
2016,04,11,07,29,9.60
2016,04,11,07,30,9.60
2016,04,11,07,31,9.60
2016,04,11,07,32,9.60
2016,04,11,07,33,9.60
2016,04,11,07,34,9.60
2016,04,11,07,35,9.60
2016,04,11,07,36,9.60
2016,04,11,07,37,9.60
2016,04,11,07,38,9.60
2016,04,11,07,39,9.60
2016,04,11,07,40,9.60
2016,04,11,07,41,9.60
2016,04,11,07,42,9.60
2016,04,11,07,43,9.60
2016,04,11,07,44,9.60
2016,04,11,07,45,9.50
2016,04,11,07,46,9.60
2016,04,11,07,47,9.60
2016,04,11,07,48,9.60
2016,04,11,07,49,9.60
2016,04,11,07,50,9.60
2016,04,11,07,51,9.60
2016,04,11,07,52,9.60
2016,04,11,07,53,9.60
2016,04,11,07,54,9.60
2016,04,11,07,55,9.60
2016,04,11,07,56,9.60
2016,04,11,07,57,9.70
2016,04,11,07,58,9.70
2016,04,11,07,59,9.70
2016,04,11,08,00,9.70
2016,04,11,08,01,9.70
2016,04,11,08,02,9.70
2016,04,11,08,03,9.80
2016,04,11,08,04,9.80
2016,04,11,08,05,9.80
2016,04,11,08,06,9.80
2016,04,11,08,07,9.80
2016,04,11,08,08,9.90
2016,04,11,08,09,9.90
2016,04,11,08,10,9.90
2016,04,11,08,11,10.00
2016,04,11,08,12,10.00
2016,04,11,08,13,10.10
2016,04,11,08,14,10.10
2016,04,11,08,15,10.10
2016,04,11,08,16,10.10
2016,04,11,08,17,10.10
2016,04,11,08,18,10.20
2016,04,11,08,19,10.20
2016,04,11,08,20,10.20
2016,04,11,08,21,10.30
2016,04,11,08,22,10.30
2016,04,11,08,23,10.30
2016,04,11,08,24,10.30
2016,04,11,08,25,10.40
2016,04,11,08,26,10.40
2016,04,11,08,27,10.40
2016,04,11,08,28,10.50
2016,04,11,08,29,10.50
2016,04,11,08,30,10.60
2016,04,11,08,31,10.60
2016,04,11,08,32,10.60
2016,04,11,08,33,10.70
2016,04,11,08,34,10.70
2016,04,11,08,35,10.80
2016,04,11,08,36,10.90
2016,04,11,08,37,10.90
2016,04,11,08,38,11.00
2016,04,11,08,39,11.10
2016,04,11,08,40,11.20
2016,04,11,08,41,11.30
2016,04,11,08,42,11.40
2016,04,11,08,43,11.50
2016,04,11,08,44,11.60
2016,04,11,08,45,11.70
2016,04,11,08,46,11.70
2016,04,11,08,47,11.80
2016,04,11,08,48,11.80
2016,04,11,08,49,11.80
2016,04,11,08,50,11.80
2016,04,11,08,51,11.80
2016,04,11,08,52,11.80
2016,04,11,08,53,11.80
2016,04,11,08,54,11.80
2016,04,11,08,55,11.80
2016,04,11,08,56,11.80
2016,04,11,08,57,11.80
2016,04,11,08,58,11.80
2016,04,11,08,59,11.80
2016,04,11,09,00,11.80
2016,04,11,09,01,11.70
2016,04,11,09,02,11.80
2016,04,11,09,03,11.80
2016,04,11,09,04,11.80
2016,04,11,09,05,11.70
2016,04,11,09,06,11.80
2016,04,11,09,07,11.80
2016,04,11,09,08,11.80
2016,04,11,09,09,11.80
2016,04,11,09,10,11.80
2016,04,11,09,11,11.70
2016,04,11,09,12,11.70
2016,04,11,09,13,11.70
2016,04,11,09,14,11.70
2016,04,11,09,15,11.70
2016,04,11,09,16,11.60
2016,04,11,09,17,11.60
2016,04,11,09,18,11.60
2016,04,11,09,19,11.60
2016,04,11,09,20,11.60
2016,04,11,09,21,11.60
2016,04,11,09,22,11.60
2016,04,11,09,23,11.50
2016,04,11,09,24,11.50
2016,04,11,09,25,11.50
2016,04,11,09,26,11.50
2016,04,11,09,27,11.50
2016,04,11,09,28,11.50
2016,04,11,09,29,11.50
2016,04,11,09,30,11.60
2016,04,11,09,31,11.60
2016,04,11,09,32,11.50
2016,04,11,09,33,11.50
2016,04,11,09,34,11.40
2016,04,11,09,35,11.40
2016,04,11,09,36,11.40
2016,04,11,09,37,11.30
2016,04,11,09,38,11.30
2016,04,11,09,39,11.20
2016,04,11,09,40,11.20
2016,04,11,09,41,11.10
2016,04,11,09,42,11.10
2016,04,11,09,43,11.00
2016,04,11,09,44,10.90
2016,04,11,09,45,10.90
2016,04,11,09,46,10.90
2016,04,11,09,47,10.90
2016,04,11,09,48,10.80
2016,04,11,09,49,10.80
2016,04,11,09,50,10.80
2016,04,11,09,51,10.80
2016,04,11,09,52,10.80
2016,04,11,09,53,10.80
2016,04,11,09,54,10.80
2016,04,11,09,55,10.80
2016,04,11,09,56,10.80
2016,04,11,09,57,10.80
2016,04,11,09,58,10.80
2016,04,11,09,59,10.80
2016,04,11,10,00,10.80
2016,04,11,10,01,10.90
2016,04,11,10,02,10.90
2016,04,11,10,03,11.00
2016,04,11,10,04,11.00
2016,04,11,10,05,11.10
2016,04,11,10,06,11.10
2016,04,11,10,07,11.20
2016,04,11,10,08,11.20
2016,04,11,10,09,11.20
2016,04,11,10,10,11.30
2016,04,11,10,11,11.30
2016,04,11,10,12,11.30
2016,04,11,10,13,11.40
2016,04,11,10,14,11.40
2016,04,11,10,15,11.40
2016,04,11,10,16,11.40
2016,04,11,10,17,11.50
2016,04,11,10,18,11.50
2016,04,11,10,19,11.50
2016,04,11,10,20,11.60
2016,04,11,10,21,11.60
2016,04,11,10,22,11.60
2016,04,11,10,23,11.60
2016,04,11,10,24,11.60
2016,04,11,10,25,11.60
2016,04,11,10,26,11.70
2016,04,11,10,27,11.70
2016,04,11,10,28,11.70
2016,04,11,10,29,11.70
2016,04,11,10,30,11.70
2016,04,11,10,31,11.80
2016,04,11,10,32,11.90
2016,04,11,10,33,11.90
2016,04,11,10,34,12.00
2016,04,11,10,35,12.00
2016,04,11,10,36,12.00
2016,04,11,10,37,11.90
2016,04,11,10,38,11.80
2016,04,11,10,39,11.70
2016,04,11,10,40,11.70
2016,04,11,10,41,11.70
2016,04,11,10,42,11.70
2016,04,11,10,43,11.70
2016,04,11,10,44,11.70
2016,04,11,10,45,11.80
2016,04,11,10,46,11.80
2016,04,11,10,47,11.80
2016,04,11,10,48,11.80
2016,04,11,10,49,11.90
2016,04,11,10,50,12.00
2016,04,11,10,51,12.00
2016,04,11,10,52,12.00
2016,04,11,10,53,12.10
2016,04,11,10,54,12.20
2016,04,11,10,55,12.10
2016,04,11,10,56,12.20
2016,04,11,10,57,12.30
2016,04,11,10,58,12.40
2016,04,11,10,59,12.50
2016,04,11,11,00,12.50
2016,04,11,11,01,12.50
2016,04,11,11,02,12.50
2016,04,11,11,03,12.50
2016,04,11,11,04,12.60
2016,04,11,11,05,12.70
2016,04,11,11,06,12.80
2016,04,11,11,07,12.80
2016,04,11,11,08,12.90
2016,04,11,11,09,12.90
2016,04,11,11,10,12.90
2016,04,11,11,11,12.80
2016,04,11,11,12,12.70
2016,04,11,11,13,12.60
2016,04,11,11,14,12.60
2016,04,11,11,15,12.50
2016,04,11,11,16,12.50
2016,04,11,11,17,12.40
2016,04,11,11,18,12.50
2016,04,11,11,19,12.60
2016,04,11,11,20,12.60
2016,04,11,11,21,12.60
2016,04,11,11,22,12.60
2016,04,11,11,23,12.60
2016,04,11,11,24,12.60
2016,04,11,11,25,12.60
2016,04,11,11,26,12.60
2016,04,11,11,27,12.60
2016,04,11,11,28,12.60
2016,04,11,11,29,12.70
2016,04,11,11,30,12.80
2016,04,11,11,31,12.80
2016,04,11,11,32,12.90
2016,04,11,11,33,12.90
2016,04,11,11,34,13.00
2016,04,11,11,35,13.00
2016,04,11,11,36,13.10
2016,04,11,11,37,13.10
2016,04,11,11,38,13.00
2016,04,11,11,39,13.00
2016,04,11,11,40,13.00
2016,04,11,11,41,12.90
2016,04,11,11,42,12.90
2016,04,11,11,43,12.90
2016,04,11,11,44,12.80
2016,04,11,11,45,12.80
2016,04,11,11,46,12.80
2016,04,11,11,47,12.80
2016,04,11,11,48,12.80
2016,04,11,11,49,12.80
2016,04,11,11,50,12.90
2016,04,11,11,51,12.90
2016,04,11,11,52,12.90
2016,04,11,11,53,13.00
2016,04,11,11,54,13.00
2016,04,11,11,55,13.00
2016,04,11,11,56,13.00
2016,04,11,11,57,13.00
2016,04,11,11,58,13.10
2016,04,11,11,59,13.10
2016,04,11,12,00,13.10
2016,04,11,12,01,13.00
2016,04,11,12,02,13.00
2016,04,11,12,03,12.90
2016,04,11,12,04,13.00
2016,04,11,12,05,13.00
2016,04,11,12,06,13.10
2016,04,11,12,07,13.20
2016,04,11,12,08,13.20
2016,04,11,12,09,13.30
2016,04,11,12,10,13.40
2016,04,11,12,11,13.40
2016,04,11,12,12,13.40
2016,04,11,12,13,13.40
2016,04,11,12,14,13.30
2016,04,11,12,15,13.30
2016,04,11,12,16,13.30
2016,04,11,12,17,13.40
2016,04,11,12,18,13.40
2016,04,11,12,19,13.50
2016,04,11,12,20,13.50
2016,04,11,12,21,13.50
2016,04,11,12,22,13.50
2016,04,11,12,23,13.40
2016,04,11,12,24,13.30
2016,04,11,12,25,13.20
2016,04,11,12,26,13.10
2016,04,11,12,27,12.90
2016,04,11,12,28,12.90
2016,04,11,12,29,12.80
2016,04,11,12,30,12.80
2016,04,11,12,31,12.70
2016,04,11,12,32,12.70
2016,04,11,12,33,12.70
2016,04,11,12,34,12.70
2016,04,11,12,35,12.70
2016,04,11,12,36,12.70
2016,04,11,12,37,12.60
2016,04,11,12,38,12.60
2016,04,11,12,39,12.60
2016,04,11,12,40,12.50
2016,04,11,12,41,12.50
2016,04,11,12,42,12.40
2016,04,11,12,43,12.50
2016,04,11,12,44,12.50
2016,04,11,12,45,12.60
2016,04,11,12,46,12.60
2016,04,11,12,47,12.60
2016,04,11,12,48,12.60
2016,04,11,12,49,12.70
2016,04,11,12,50,12.70
2016,04,11,12,51,12.80
2016,04,11,12,52,12.80
2016,04,11,12,53,12.80
2016,04,11,12,54,12.80
2016,04,11,12,55,12.80
2016,04,11,12,56,12.70
2016,04,11,12,57,12.70
2016,04,11,12,58,12.70
2016,04,11,12,59,12.70
2016,04,11,13,00,12.80
2016,04,11,13,01,12.80
2016,04,11,13,02,12.80
2016,04,11,13,03,12.80
2016,04,11,13,04,12.80
2016,04,11,13,05,12.90
2016,04,11,13,06,12.90
2016,04,11,13,07,12.90
2016,04,11,13,08,12.90
2016,04,11,13,09,12.90
2016,04,11,13,10,12.90
2016,04,11,13,11,12.90
2016,04,11,13,12,12.90
2016,04,11,13,13,12.80
2016,04,11,13,14,12.80
2016,04,11,13,15,12.80
2016,04,11,13,16,12.80
2016,04,11,13,17,12.80
2016,04,11,13,18,12.80
2016,04,11,13,19,12.80
2016,04,11,13,20,12.90
2016,04,11,13,21,12.90
2016,04,11,13,22,12.90
2016,04,11,13,23,12.90
2016,04,11,13,24,12.90
2016,04,11,13,25,12.80
2016,04,11,13,26,12.80
2016,04,11,13,27,12.80
2016,04,11,13,28,12.70
2016,04,11,13,29,12.70
2016,04,11,13,30,12.70
2016,04,11,13,31,12.70
2016,04,11,13,32,12.70
2016,04,11,13,33,12.80
2016,04,11,13,34,12.80
2016,04,11,13,35,12.80
2016,04,11,13,36,12.80
2016,04,11,13,37,12.80
2016,04,11,13,38,12.90
2016,04,11,13,39,12.90
2016,04,11,13,40,12.90
2016,04,11,13,41,12.90
2016,04,11,13,42,12.90
2016,04,11,13,43,13.00
2016,04,11,13,44,13.00
2016,04,11,13,45,13.10
2016,04,11,13,46,13.10
2016,04,11,13,47,13.10
2016,04,11,13,48,13.10
2016,04,11,13,49,13.20
2016,04,11,13,50,13.20
2016,04,11,13,51,13.30
2016,04,11,13,52,13.30
2016,04,11,13,53,13.30
2016,04,11,13,54,13.40
2016,04,11,13,55,13.40
2016,04,11,13,56,13.40
2016,04,11,13,57,13.40
2016,04,11,13,58,13.40
2016,04,11,13,59,13.30
2016,04,11,14,00,13.30
2016,04,11,14,01,13.20
2016,04,11,14,02,13.20
2016,04,11,14,03,13.20
2016,04,11,14,04,13.20
2016,04,11,14,05,13.30
2016,04,11,14,06,13.30
2016,04,11,14,07,13.30
2016,04,11,14,08,13.30
2016,04,11,14,09,13.30
2016,04,11,14,10,13.40
2016,04,11,14,11,13.40
2016,04,11,14,12,13.40
2016,04,11,14,13,13.40
2016,04,11,14,14,13.30
2016,04,11,14,15,13.30
2016,04,11,14,16,13.30
2016,04,11,14,17,13.40
2016,04,11,14,18,13.40
2016,04,11,14,19,13.50
2016,04,11,14,20,13.60
2016,04,11,14,21,13.60
2016,04,11,14,22,13.60
2016,04,11,14,23,13.70
2016,04,11,14,24,13.70
2016,04,11,14,25,13.70
2016,04,11,14,26,13.70
2016,04,11,14,27,13.70
2016,04,11,14,28,13.70
2016,04,11,14,29,13.70
2016,04,11,14,30,13.70
2016,04,11,14,31,13.70
2016,04,11,14,32,13.70
2016,04,11,14,33,13.70
2016,04,11,14,34,13.80
2016,04,11,14,35,13.80
2016,04,11,14,36,13.80
2016,04,11,14,37,13.80
2016,04,11,14,38,13.80
2016,04,11,14,39,13.80
2016,04,11,14,40,13.90
2016,04,11,14,41,13.90
2016,04,11,14,42,14.00
2016,04,11,14,43,14.00
2016,04,11,14,44,14.10
2016,04,11,14,45,14.00
2016,04,11,14,46,14.00
2016,04,11,14,47,13.90
2016,04,11,14,48,13.90
2016,04,11,14,49,13.80
2016,04,11,14,50,13.80
2016,04,11,14,51,13.70
2016,04,11,14,52,13.70
2016,04,11,14,53,13.70
2016,04,11,14,54,13.60
2016,04,11,14,55,13.60
2016,04,11,14,56,13.60
2016,04,11,14,57,13.50
2016,04,11,14,58,13.50
2016,04,11,14,59,13.50
2016,04,11,15,00,13.50
2016,04,11,15,01,13.50
2016,04,11,15,02,13.50
2016,04,11,15,03,13.50
2016,04,11,15,04,13.50
2016,04,11,15,05,13.50
2016,04,11,15,06,13.50
2016,04,11,15,07,13.50
2016,04,11,15,08,13.50
2016,04,11,15,09,13.50
2016,04,11,15,10,13.50
2016,04,11,15,11,13.60
2016,04,11,15,12,13.60
2016,04,11,15,13,13.60
2016,04,11,15,14,13.60
2016,04,11,15,15,13.60
2016,04,11,15,16,13.60
2016,04,11,15,17,13.70
2016,04,11,15,18,13.70
2016,04,11,15,19,13.80
2016,04,11,15,20,13.80
2016,04,11,15,21,13.80
2016,04,11,15,22,13.80
2016,04,11,15,23,13.70
2016,04,11,15,24,13.70
2016,04,11,15,25,13.70
2016,04,11,15,26,13.60
2016,04,11,15,27,13.60
2016,04,11,15,28,13.60
2016,04,11,15,29,13.60
2016,04,11,15,30,13.60
2016,04,11,15,31,13.50
2016,04,11,15,32,13.60
2016,04,11,15,33,13.60
2016,04,11,15,34,13.60
2016,04,11,15,35,13.60
2016,04,11,15,36,13.60
2016,04,11,15,37,13.60
2016,04,11,15,38,13.60
2016,04,11,15,39,13.60
2016,04,11,15,40,13.60
2016,04,11,15,41,13.60
2016,04,11,15,42,13.60
2016,04,11,15,43,13.50
2016,04,11,15,44,13.50
2016,04,11,15,45,13.50
2016,04,11,15,46,13.50
2016,04,11,15,47,13.50
2016,04,11,15,48,13.50
2016,04,11,15,49,13.50
2016,04,11,15,50,13.50
2016,04,11,15,51,13.50
2016,04,11,15,52,13.50
2016,04,11,15,53,13.50
2016,04,11,15,54,13.50
2016,04,11,15,55,13.50
2016,04,11,15,56,13.50
2016,04,11,15,57,13.50
2016,04,11,15,58,13.50
2016,04,11,15,59,13.50
2016,04,11,16,00,13.60
2016,04,11,16,01,13.60
2016,04,11,16,02,13.60
2016,04,11,16,03,13.60
2016,04,11,16,04,13.50
2016,04,11,16,05,13.50
2016,04,11,16,06,13.50
2016,04,11,16,07,13.50
2016,04,11,16,08,13.50
2016,04,11,16,09,13.50
2016,04,11,16,10,13.50
2016,04,11,16,11,13.50
2016,04,11,16,12,13.50
2016,04,11,16,13,13.40
2016,04,11,16,14,13.40
2016,04,11,16,15,13.40
2016,04,11,16,16,13.40
2016,04,11,16,17,13.40
2016,04,11,16,18,13.40
2016,04,11,16,19,13.40
2016,04,11,16,20,13.40
2016,04,11,16,21,13.40
2016,04,11,16,22,13.40
2016,04,11,16,23,13.40
2016,04,11,16,24,13.40
2016,04,11,16,25,13.40
2016,04,11,16,26,13.40
2016,04,11,16,27,13.40
2016,04,11,16,28,13.40
2016,04,11,16,29,13.40
2016,04,11,16,30,13.30
2016,04,11,16,31,13.30
2016,04,11,16,32,13.30
2016,04,11,16,33,13.30
2016,04,11,16,34,13.30
2016,04,11,16,35,13.40
2016,04,11,16,36,13.40
2016,04,11,16,37,13.50
2016,04,11,16,38,13.50
2016,04,11,16,39,13.50
2016,04,11,16,40,13.50
2016,04,11,16,41,13.50
2016,04,11,16,42,13.50
2016,04,11,16,43,13.50
2016,04,11,16,44,13.50
2016,04,11,16,45,13.50
2016,04,11,16,46,13.60
2016,04,11,16,47,13.50
2016,04,11,16,48,13.50
2016,04,11,16,49,13.60
2016,04,11,16,50,13.60
2016,04,11,16,51,13.60
2016,04,11,16,52,13.50
2016,04,11,16,53,13.50
2016,04,11,16,54,13.50
2016,04,11,16,55,13.50
2016,04,11,16,56,13.50
2016,04,11,16,57,13.50
2016,04,11,16,58,13.40
2016,04,11,16,59,13.40
2016,04,11,17,00,13.40
2016,04,11,17,01,13.30
2016,04,11,17,02,13.30
2016,04,11,17,03,13.30
2016,04,11,17,04,13.30
2016,04,11,17,05,13.20
2016,04,11,17,06,13.20
2016,04,11,17,07,13.20
2016,04,11,17,08,13.20
2016,04,11,17,09,13.20
2016,04,11,17,10,13.20
2016,04,11,17,11,13.20
2016,04,11,17,12,13.30
2016,04,11,17,13,13.30
2016,04,11,17,14,13.30
2016,04,11,17,15,13.30
2016,04,11,17,16,13.20
2016,04,11,17,17,13.20
2016,04,11,17,18,13.20
2016,04,11,17,19,13.20
2016,04,11,17,20,13.20
2016,04,11,17,21,13.20
2016,04,11,17,22,13.20
2016,04,11,17,23,13.20
2016,04,11,17,24,13.30
2016,04,11,17,25,13.30
2016,04,11,17,26,13.30
2016,04,11,17,27,13.20
2016,04,11,17,28,13.20
2016,04,11,17,29,13.20
2016,04,11,17,30,13.20
2016,04,11,17,31,13.20
2016,04,11,17,32,13.20
2016,04,11,17,33,13.20
2016,04,11,17,34,13.20
2016,04,11,17,35,13.10
2016,04,11,17,36,13.10
2016,04,11,17,37,13.10
2016,04,11,17,38,13.10
2016,04,11,17,39,13.10
2016,04,11,17,40,13.10